| time (UTC) | temp F | wind direction | speed MPH | gust MPH | rain 1hr in | rain 24hr in | rain mn in | humidity % | barometer mb |
| 20260903122911 | 73 | 273 | 10.0 | 14.0 | 0.00 | 0.00 | 0.00 | 47 | 1019.9 |
| 20260903122409 | 73 | 268 | 12.0 | 16.0 | 0.00 | 0.00 | 0.00 | 47 | 1019.9 |
| 20260903121908 | 73 | 318 | 8.0 | 14.0 | 0.00 | 0.00 | 0.00 | 47 | 1019.8 |
| 20260903121407 | 73 | 282 | 13.0 | 17.0 | 0.00 | 0.00 | 0.00 | 47 | 1020.1 |
| 20260903120906 | 73 | 280 | 12.0 | 15.0 | 0.00 | 0.00 | 0.00 | 48 | 1019.9 |
| 20260903120405 | 73 | 273 | 12.0 | 15.0 | 0.00 | 0.00 | 0.00 | 47 | 1020.0 |
| 20260903115904 | 73 | 280 | 9.0 | 15.0 | 0.00 | 0.00 | 0.00 | 48 | 1020.0 |
| 20260903115403 | 72 | 275 | 15.0 | 18.0 | 0.00 | 0.00 | 0.00 | 47 | 1020.2 |
| 20260903114901 | 72 | 268 | 13.0 | 15.0 | 0.00 | 0.00 | 0.00 | 48 | 1020.1 |
| 20260903114400 | 72 | 270 | 13.0 | 17.0 | 0.00 | 0.00 | 0.00 | 49 | 1020.3 |
| 20260903113859 | 72 | 284 | 15.0 | 19.0 | 0.00 | 0.00 | 0.00 | 48 | 1020.4 |
| 20260903113358 | 72 | 282 | 11.0 | 14.0 | 0.00 | 0.00 | 0.00 | 48 | 1020.4 |
| 20260903112857 | 72 | 296 | 9.0 | 14.0 | 0.00 | 0.00 | 0.00 | 53 | 1020.6 |
| 20260903112356 | 73 | 283 | 11.0 | 15.0 | 0.00 | 0.00 | 0.00 | 49 | 1020.4 |
| 20260903111855 | 73 | 303 | 8.0 | 13.0 | 0.00 | 0.00 | 0.00 | 52 | 1020.5 |
| 20260903111353 | 73 | 272 | 12.0 | 17.0 | 0.00 | 0.00 | 0.00 | 48 | 1020.6 |
| 20260903110852 | 74 | 280 | 12.0 | 17.0 | 0.00 | 0.00 | 0.00 | 48 | 1020.6 |
| 20260903110351 | 74 | 282 | 7.0 | 12.0 | 0.00 | 0.00 | 0.00 | 55 | 1020.9 |
| 20260903105850 | 74 | 293 | 8.0 | 11.0 | 0.00 | 0.00 | 0.00 | 51 | 1020.9 |
| 20260903105349 | 74 | 273 | 13.0 | 18.0 | 0.00 | 0.00 | 0.00 | 48 | 1020.9 |
| 20260903104847 | 73 | 277 | 11.0 | 21.0 | 0.00 | 0.00 | 0.00 | 49 | 1021.0 |
| 20260903104346 | 73 | 270 | 12.0 | 19.0 | 0.00 | 0.00 | 0.00 | 50 | 1021.0 |
| 20260903103845 | 73 | 248 | 7.0 | 10.0 | 0.00 | 0.00 | 0.00 | 53 | 1021.2 |
| 20260903103344 | 73 | 282 | 10.0 | 13.0 | 0.00 | 0.00 | 0.00 | 53 | 1021.3 |
| 20260903102842 | 73 | 293 | 9.0 | 14.0 | 0.00 | 0.00 | 0.00 | 51 | 1021.1 |
| 20260903102341 | 73 | 308 | 7.0 | 11.0 | 0.00 | 0.00 | 0.00 | 56 | 1021.1 |
| 20260903101840 | 73 | 286 | 8.0 | 12.0 | 0.00 | 0.00 | 0.00 | 54 | 1021.2 |
| 20260903101339 | 72 | 296 | 7.0 | 10.0 | 0.00 | 0.00 | 0.00 | 55 | 1021.3 |
| 20260903100838 | 72 | 272 | 11.0 | 15.0 | 0.00 | 0.00 | 0.00 | 53 | 1021.3 |
| 20260903100337 | 72 | 292 | 10.0 | 15.0 | 0.00 | 0.00 | 0.00 | 54 | 1021.4 |
| 20260903095836 | 72 | 284 | 12.0 | 17.0 | 0.00 | 0.00 | 0.00 | 52 | 1021.4 |
| 20260903095334 | 72 | 267 | 11.0 | 16.0 | 0.00 | 0.00 | 0.00 | 54 | 1021.4 |
| 20260903094833 | 72 | 268 | 11.0 | 16.0 | 0.00 | 0.00 | 0.00 | 55 | 1021.5 |
| 20260903094332 | 71 | 265 | 11.0 | 13.0 | 0.00 | 0.00 | 0.00 | 58 | 1021.5 |
| 20260903093831 | 71 | 260 | 9.0 | 12.0 | 0.00 | 0.00 | 0.00 | 57 | 1021.5 |
| 20260903093330 | 71 | 267 | 13.0 | 17.0 | 0.00 | 0.00 | 0.00 | 55 | 1021.5 |
| 20260903092829 | 71 | 288 | 12.0 | 17.0 | 0.00 | 0.00 | 0.00 | 58 | 1021.4 |
| 20260903092328 | 71 | 306 | 10.0 | 18.0 | 0.00 | 0.00 | 0.00 | 57 | 1021.3 |
| 20260903091827 | 70 | 282 | 10.0 | 14.0 | 0.00 | 0.00 | 0.00 | 64 | 1021.6 |
| 20260903091326 | 69 | 267 | 11.0 | 13.0 | 0.00 | 0.00 | 0.00 | 63 | 1021.6 |
| 20260903090825 | 69 | 284 | 7.0 | 12.0 | 0.00 | 0.00 | 0.00 | 71 | 1021.5 |
| 20260903090324 | 70 | 315 | 4.0 | 7.0 | 0.00 | 0.00 | 0.00 | 100 | 1021.6 |
| 20260903085822 | 70 | 303 | 4.0 | 6.0 | 0.00 | 0.00 | 0.00 | 93 | 1021.6 |
| 20260903085321 | 70 | 244 | 5.0 | 6.0 | 0.00 | 0.00 | 0.00 | 100 | 1021.7 |
| 20260903084820 | 69 | 266 | 6.0 | 7.0 | 0.00 | 0.00 | 0.00 | 89 | 1021.8 |
| 20260903084319 | 68 | 246 | 6.0 | 8.0 | 0.00 | 0.00 | 0.00 | 98 | 1021.8 |
| 20260903083818 | 67 | 254 | 6.0 | 8.0 | 0.00 | 0.00 | 0.00 | 98 | 1021.8 |
| 20260903083317 | 68 | 273 | 6.0 | 8.0 | 0.00 | 0.00 | 0.00 | 89 | 1021.9 |
| 20260903082816 | 68 | 255 | 6.0 | 9.0 | 0.00 | 0.00 | 0.00 | 91 | 1021.8 |
| 20260903082315 | 68 | 258 | 6.0 | 9.0 | 0.00 | 0.00 | 0.00 | 100 | 1021.9 |
| 20260903081814 | 68 | 258 | 5.0 | 9.0 | 0.00 | 0.00 | 0.00 | 100 | 1021.8 |
| 20260903081313 | 68 | 232 | 5.0 | 6.0 | 0.00 | 0.00 | 0.00 | 100 | 1021.9 |
| 20260903080812 | 68 | 265 | 4.0 | 6.0 | 0.00 | 0.00 | 0.00 | 100 | 1022.0 |
| 20260903080310 | 68 | 249 | 5.0 | 6.0 | 0.00 | 0.00 | 0.00 | 100 | 1022.0 |
| 20260903075809 | 68 | 244 | 4.0 | 6.0 | 0.00 | 0.00 | 0.00 | 100 | 1021.9 |
| 20260903075308 | 67 | 232 | 3.0 | 4.0 | 0.00 | 0.00 | 0.00 | 100 | 1022.0 |
| 20260903074807 | 66 | 237 | 4.0 | 5.0 | 0.00 | 0.00 | 0.00 | 100 | 1022.0 |
| 20260903074306 | 66 | 227 | 4.0 | 6.0 | 0.00 | 0.00 | 0.00 | 100 | 1021.9 |
| 20260903073805 | 65 | 235 | 3.0 | 5.0 | 0.00 | 0.00 | 0.00 | 100 | 1022.0 |
| 20260903073305 | 64 | 242 | 4.0 | 6.0 | 0.00 | 0.00 | 0.00 | 100 | 1022.0 |
| 20260903072804 | 64 | 237 | 5.0 | 7.0 | 0.00 | 0.00 | 0.00 | 100 | 1022.0 |
| 20260903072306 | 63 | 244 | 7.0 | 8.0 | 0.00 | 0.00 | 0.00 | 100 | 1022.0 |
| 20260903071802 | 63 | 235 | 5.0 | 6.0 | 0.00 | 0.00 | 0.00 | 100 | 1022.0 |
| 20260903071301 | 63 | 235 | 5.0 | 6.0 | 0.00 | 0.00 | 0.00 | 100 | 1022.0 |
| 20260903070800 | 62 | 239 | 6.0 | 7.0 | 0.00 | 0.00 | 0.00 | 100 | 1022.0 |
| 20260903070300 | 61 | 227 | 5.0 | 6.0 | 0.00 | 0.00 | 0.00 | 100 | 1022.1 |
| 20260903065759 | 61 | 237 | 5.0 | 6.0 | 0.00 | 0.00 | 0.00 | 100 | 1022.0 |
| 20260903065258 | 61 | 232 | 4.0 | 5.0 | 0.00 | 0.00 | 0.00 | 100 | 1022.0 |
| 20260903064758 | 60 | 225 | 5.0 | 6.0 | 0.00 | 0.00 | 0.00 | 100 | 1022.0 |
| 20260903064257 | 60 | 228 | 5.0 | 6.0 | 0.00 | 0.00 | 0.00 | 100 | 1021.9 |
| 20260903063756 | 60 | 249 | 5.0 | 7.0 | 0.00 | 0.00 | 0.00 | 100 | 1021.8 |
| 20260903063256 | 59 | 228 | 6.0 | 7.0 | 0.00 | 0.00 | 0.00 | 100 | 1021.8 |
| 20260903062755 | 59 | 225 | 6.0 | 9.0 | 0.00 | 0.00 | 0.00 | 100 | 1021.8 |
| 20260903062255 | 59 | 228 | 6.0 | 9.0 | 0.00 | 0.00 | 0.00 | 100 | 1021.8 |
| 20260903061755 | 59 | 225 | 5.0 | 7.0 | 0.00 | 0.00 | 0.00 | 100 | 1021.8 |
| 20260903061254 | 59 | 225 | 7.0 | 10.0 | 0.00 | 0.00 | 0.00 | 100 | 1021.8 |
| 20260903060754 | 58 | 228 | 5.0 | 6.0 | 0.00 | 0.00 | 0.00 | 100 | 1021.8 |
| 20260903060253 | 58 | 235 | 5.0 | 6.0 | 0.00 | 0.00 | 0.00 | 100 | 1021.7 |
| 20260903055753 | 58 | 249 | 6.0 | 8.0 | 0.00 | 0.00 | 0.00 | 100 | 1021.7 |
| 20260903055253 | 58 | 239 | 5.0 | 7.0 | 0.00 | 0.00 | 0.00 | 100 | 1021.6 |
| 20260903054752 | 57 | 240 | 7.0 | 13.0 | 0.00 | 0.00 | 0.00 | 100 | 1021.6 |
| 20260903054252 | 57 | 227 | 6.0 | 12.0 | 0.00 | 0.00 | 0.00 | 100 | 1021.6 |
| 20260903053751 | 57 | 235 | 7.0 | 9.0 | 0.00 | 0.00 | 0.00 | 100 | 1021.6 |
| 20260903053251 | 57 | 235 | 5.0 | 7.0 | 0.00 | 0.00 | 0.00 | 100 | 1021.6 |
| 20260903052751 | 57 | 239 | 6.0 | 14.0 | 0.00 | 0.00 | 0.00 | 100 | 1021.6 |
| 20260903052250 | 57 | 225 | 6.0 | 7.0 | 0.00 | 0.00 | 0.00 | 100 | 1021.5 |
| 20260903051750 | 57 | 235 | 7.0 | 13.0 | 0.00 | 0.00 | 0.00 | 100 | 1021.5 |
| 20260903051250 | 57 | 225 | 6.0 | 7.0 | 0.00 | 0.00 | 0.00 | 100 | 1021.4 |
| 20260903050749 | 57 | 232 | 7.0 | 8.0 | 0.00 | 0.00 | 0.00 | 100 | 1021.4 |
| 20260903050249 | 57 | 232 | 7.0 | 8.0 | 0.00 | 0.00 | 0.00 | 100 | 1021.4 |
| 20260903045749 | 57 | 225 | 7.0 | 8.0 | 0.00 | 0.00 | 0.00 | 100 | 1021.5 |
| 20260903045248 | 56 | 235 | 7.0 | 8.0 | 0.00 | 0.00 | 0.00 | 100 | 1021.5 |
| 20260903044748 | 56 | 234 | 7.0 | 8.0 | 0.00 | 0.00 | 0.00 | 100 | 1021.5 |
| 20260903044248 | 56 | 235 | 6.0 | 8.0 | 0.00 | 0.00 | 0.00 | 100 | 1021.4 |
| 20260903043747 | 57 | 234 | 6.0 | 8.0 | 0.00 | 0.00 | 0.00 | 100 | 1021.5 |
| 20260903043247 | 57 | 253 | 7.0 | 8.0 | 0.00 | 0.00 | 0.00 | 100 | 1021.4 |
| 20260903042747 | 57 | 237 | 8.0 | 9.0 | 0.00 | 0.00 | 0.00 | 100 | 1021.4 |
| 20260903042247 | 57 | 228 | 7.0 | 8.0 | 0.00 | 0.00 | 0.00 | 100 | 1021.4 |
| 20260903041746 | 57 | 230 | 6.0 | 7.0 | 0.00 | 0.00 | 0.00 | 100 | 1021.3 |
| 20260903041246 | 57 | 228 | 5.0 | 6.0 | 0.00 | 0.00 | 0.00 | 100 | 1021.3 |
| 20260903040746 | 57 | 237 | 5.0 | 6.0 | 0.00 | 0.00 | 0.00 | 100 | 1021.4 |
| 20260903040245 | 57 | 246 | 5.0 | 6.0 | 0.00 | 0.00 | 0.00 | 100 | 1021.3 |
| 20260903035745 | 57 | 234 | 6.0 | 7.0 | 0.00 | 0.00 | 0.00 | 100 | 1021.3 |
| 20260903035245 | 57 | 232 | 6.0 | 7.0 | 0.00 | 0.00 | 0.00 | 100 | 1021.2 |
| 20260903034744 | 57 | 232 | 6.0 | 7.0 | 0.00 | 0.00 | 0.00 | 100 | 1021.3 |
| 20260903034244 | 57 | 225 | 7.0 | 8.0 | 0.00 | 0.00 | 0.00 | 100 | 1021.3 |
| 20260903033744 | 57 | 228 | 6.0 | 7.0 | 0.00 | 0.00 | 0.00 | 100 | 1021.2 |
| 20260903033243 | 57 | 228 | 7.0 | 7.0 | 0.00 | 0.00 | 0.00 | 100 | 1021.3 |
| 20260903032743 | 57 | 228 | 5.0 | 8.0 | 0.00 | 0.00 | 0.00 | 100 | 1021.3 |
| 20260903032243 | 57 | 222 | 6.0 | 8.0 | 0.00 | 0.00 | 0.00 | 100 | 1021.3 |
| 20260903031742 | 57 | 235 | 5.0 | 6.0 | 0.00 | 0.00 | 0.00 | 100 | 1021.3 |
| 20260903031242 | 57 | 228 | 6.0 | 7.0 | 0.00 | 0.00 | 0.00 | 100 | 1021.3 |
| 20260903030742 | 57 | 223 | 5.0 | 7.0 | 0.00 | 0.00 | 0.00 | 100 | 1021.3 |
| 20260903030241 | 57 | 227 | 5.0 | 6.0 | 0.00 | 0.00 | 0.00 | 100 | 1021.3 |
| 20260903025741 | 57 | 228 | 5.0 | 6.0 | 0.00 | 0.00 | 0.00 | 100 | 1021.3 |
| 20260903025241 | 57 | 225 | 6.0 | 7.0 | 0.00 | 0.00 | 0.00 | 100 | 1021.3 |
| 20260903024740 | 57 | 222 | 6.0 | 6.0 | 0.00 | 0.00 | 0.00 | 100 | 1021.2 |
| 20260903024240 | 57 | 225 | 6.0 | 7.0 | 0.00 | 0.00 | 0.00 | 100 | 1021.2 |
| 20260903023740 | 57 | 225 | 6.0 | 7.0 | 0.00 | 0.00 | 0.00 | 100 | 1021.2 |
| 20260903023240 | 57 | 220 | 6.0 | 8.0 | 0.00 | 0.00 | 0.00 | 100 | 1021.1 |
| 20260903022739 | 57 | 220 | 5.0 | 6.0 | 0.00 | 0.00 | 0.00 | 100 | 1021.1 |
| 20260903022239 | 57 | 208 | 4.0 | 6.0 | 0.00 | 0.00 | 0.00 | 100 | 1021.1 |
| 20260903021739 | 57 | 215 | 5.0 | 6.0 | 0.00 | 0.00 | 0.00 | 100 | 1021.1 |
| 20260903021238 | 57 | 222 | 6.0 | 7.0 | 0.00 | 0.00 | 0.00 | 100 | 1021.1 |
| 20260903020738 | 57 | 225 | 6.0 | 7.0 | 0.00 | 0.00 | 0.00 | 100 | 1021.1 |
| 20260903020238 | 57 | 232 | 6.0 | 8.0 | 0.00 | 0.00 | 0.00 | 100 | 1021.1 |
| 20260903015737 | 57 | 225 | 6.0 | 7.0 | 0.00 | 0.00 | 0.00 | 100 | 1021.1 |
| 20260903015237 | 57 | 225 | 6.0 | 8.0 | 0.00 | 0.00 | 0.00 | 100 | 1021.1 |
| 20260903014737 | 57 | 225 | 6.0 | 8.0 | 0.00 | 0.00 | 0.00 | 100 | 1021.1 |
| 20260903014236 | 57 | 232 | 6.0 | 8.0 | 0.00 | 0.00 | 0.00 | 100 | 1021.1 |
| 20260903013736 | 57 | 237 | 7.0 | 8.0 | 0.00 | 0.00 | 0.00 | 100 | 1021.1 |
| 20260903013236 | 57 | 233 | 7.0 | 9.0 | 0.00 | 0.00 | 0.00 | 100 | 1021.1 |
| 20260903012736 | 57 | 235 | 6.0 | 8.0 | 0.00 | 0.00 | 0.00 | 100 | 1021.2 |
| 20260903012235 | 57 | 225 | 7.0 | 8.0 | 0.00 | 0.00 | 0.00 | 100 | 1021.3 |
| 20260903011735 | 57 | 227 | 6.0 | 7.0 | 0.00 | 0.00 | 0.00 | 100 | 1021.3 |
| 20260903011235 | 57 | 223 | 5.0 | 7.0 | 0.00 | 0.00 | 0.00 | 100 | 1021.3 |
| 20260903010734 | 57 | 232 | 6.0 | 8.0 | 0.00 | 0.00 | 0.00 | 100 | 1021.3 |
| 20260903010234 | 57 | 234 | 7.0 | 7.0 | 0.00 | 0.00 | 0.00 | 100 | 1021.2 |
| 20260903005733 | 57 | 239 | 7.0 | 9.0 | 0.00 | 0.00 | 0.00 | 100 | 1021.3 |
| 20260903005233 | 57 | 230 | 7.0 | 9.0 | 0.00 | 0.00 | 0.00 | 100 | 1021.3 |
| 20260903004733 | 57 | 225 | 6.0 | 8.0 | 0.00 | 0.00 | 0.00 | 100 | 1021.2 |
| 20260903004233 | 57 | 232 | 6.0 | 7.0 | 0.00 | 0.00 | 0.00 | 100 | 1021.2 |
| 20260903003732 | 57 | 222 | 6.0 | 8.0 | 0.00 | 0.00 | 0.00 | 100 | 1021.2 |
| 20260903003232 | 57 | 230 | 7.0 | 9.0 | 0.00 | 0.00 | 0.00 | 100 | 1021.2 |
| 20260903002732 | 57 | 230 | 7.0 | 8.0 | 0.00 | 0.00 | 0.00 | 100 | 1021.1 |
| 20260903002231 | 57 | 227 | 6.0 | 8.0 | 0.00 | 0.00 | 0.00 | 100 | 1021.1 |
| 20260903001731 | 57 | 233 | 7.0 | 9.0 | 0.00 | 0.00 | 0.00 | 100 | 1021.1 |
| 20260903001231 | 57 | 225 | 6.0 | 8.0 | 0.00 | 0.00 | 0.00 | 100 | 1021.1 |
| 20260903000730 | 57 | 228 | 7.0 | 10.0 | 0.00 | 0.00 | 0.00 | 100 | 1021.2 |
| 20260903000230 | 57 | 237 | 6.0 | 8.0 | 0.00 | 0.00 | 0.00 | 100 | 1021.1 |
| 20260902235730 | 58 | 230 | 6.0 | 8.0 | 0.00 | 0.00 | 0.00 | 100 | 1021.2 |
| 20260902235229 | 58 | 235 | 7.0 | 9.0 | 0.00 | 0.00 | 0.00 | 100 | 1021.1 |
| 20260902234729 | 58 | 232 | 7.0 | 9.0 | 0.00 | 0.00 | 0.00 | 100 | 1021.1 |
| 20260902234228 | 58 | 230 | 7.0 | 9.0 | 0.00 | 0.00 | 0.00 | 100 | 1021.1 |
| 20260902233728 | 58 | 227 | 7.0 | 9.0 | 0.00 | 0.00 | 0.00 | 100 | 1021.2 |
| 20260902233228 | 58 | 222 | 7.0 | 8.0 | 0.00 | 0.00 | 0.00 | 100 | 1021.1 |
| 20260902232727 | 57 | 228 | 5.0 | 6.0 | 0.00 | 0.00 | 0.00 | 100 | 1021.1 |
| 20260902232227 | 57 | 222 | 6.0 | 7.0 | 0.00 | 0.00 | 0.00 | 100 | 1021.1 |
| 20260902231727 | 58 | 228 | 7.0 | 8.0 | 0.00 | 0.00 | 0.00 | 100 | 1021.1 |
| 20260902231226 | 58 | 235 | 6.0 | 8.0 | 0.00 | 0.00 | 0.00 | 100 | 1021.1 |
| 20260902230726 | 58 | 228 | 6.0 | 8.0 | 0.00 | 0.00 | 0.00 | 100 | 1021.2 |
| 20260902230226 | 58 | 228 | 7.0 | 9.0 | 0.00 | 0.00 | 0.00 | 100 | 1021.1 |
| 20260902225725 | 58 | 228 | 7.0 | 9.0 | 0.00 | 0.00 | 0.00 | 100 | 1021.2 |
| 20260902225225 | 58 | 218 | 7.0 | 9.0 | 0.00 | 0.00 | 0.00 | 100 | 1021.2 |
| 20260902224724 | 58 | 225 | 6.0 | 8.0 | 0.00 | 0.00 | 0.00 | 100 | 1021.2 |
| 20260902224224 | 58 | 225 | 5.0 | 6.0 | 0.00 | 0.00 | 0.00 | 100 | 1021.2 |
| 20260902223724 | 58 | 234 | 6.0 | 8.0 | 0.00 | 0.00 | 0.00 | 100 | 1021.2 |
| 20260902223223 | 59 | 230 | 6.0 | 7.0 | 0.00 | 0.00 | 0.00 | 100 | 1021.2 |
| 20260902222723 | 59 | 224 | 5.0 | 6.0 | 0.00 | 0.00 | 0.00 | 100 | 1021.2 |
| 20260902222222 | 59 | 227 | 5.0 | 6.0 | 0.00 | 0.00 | 0.00 | 100 | 1021.2 |
| 20260902221722 | 59 | 232 | 6.0 | 9.0 | 0.00 | 0.00 | 0.00 | 100 | 1021.2 |
| 20260902221221 | 59 | 222 | 9.0 | 14.0 | 0.00 | 0.00 | 0.00 | 100 | 1021.2 |
| 20260902220721 | 59 | 225 | 8.0 | 14.0 | 0.00 | 0.00 | 0.00 | 100 | 1021.2 |
| 20260902220221 | 59 | 227 | 8.0 | 13.0 | 0.00 | 0.00 | 0.00 | 100 | 1021.2 |
| 20260902215720 | 59 | 223 | 6.0 | 7.0 | 0.00 | 0.00 | 0.00 | 100 | 1021.1 |
| 20260902215220 | 59 | 222 | 6.0 | 8.0 | 0.00 | 0.00 | 0.00 | 100 | 1021.1 |
| 20260902214719 | 59 | 225 | 7.0 | 9.0 | 0.00 | 0.00 | 0.00 | 100 | 1021.2 |
| 20260902214219 | 59 | 222 | 6.0 | 7.0 | 0.00 | 0.00 | 0.00 | 100 | 1021.1 |
| 20260902213718 | 59 | 222 | 5.0 | 9.0 | 0.00 | 0.00 | 0.00 | 100 | 1021.2 |
| 20260902213218 | 59 | 228 | 6.0 | 9.0 | 0.00 | 0.00 | 0.00 | 100 | 1021.1 |
| 20260902212717 | 60 | 225 | 6.0 | 9.0 | 0.00 | 0.00 | 0.00 | 100 | 1021.0 |
| 20260902212217 | 60 | 222 | 6.0 | 7.0 | 0.00 | 0.00 | 0.00 | 100 | 1021.1 |
| 20260902211717 | 60 | 225 | 5.0 | 7.0 | 0.00 | 0.00 | 0.00 | 100 | 1021.0 |
| 20260902211216 | 59 | 228 | 7.0 | 8.0 | 0.00 | 0.00 | 0.00 | 100 | 1021.1 |
| 20260902210716 | 59 | 222 | 5.0 | 6.0 | 0.00 | 0.00 | 0.00 | 100 | 1021.1 |
| 20260902210215 | 59 | 225 | 4.0 | 5.0 | 0.00 | 0.00 | 0.00 | 100 | 1021.0 |
| 20260902205715 | 59 | 232 | 5.0 | 7.0 | 0.00 | 0.00 | 0.00 | 100 | 1021.0 |
| 20260902205214 | 60 | 225 | 5.0 | 9.0 | 0.00 | 0.00 | 0.00 | 100 | 1021.0 |
| 20260902204714 | 60 | 230 | 5.0 | 9.0 | 0.00 | 0.00 | 0.00 | 100 | 1021.0 |
| 20260902204213 | 60 | 249 | 5.0 | 6.0 | 0.00 | 0.00 | 0.00 | 100 | 1021.0 |
| 20260902203713 | 60 | 265 | 4.0 | 6.0 | 0.00 | 0.00 | 0.00 | 100 | 1020.9 |
| 20260902203212 | 60 | 250 | 4.0 | 7.0 | 0.00 | 0.00 | 0.00 | 100 | 1020.9 |
| 20260902202712 | 60 | 215 | 7.0 | 11.0 | 0.00 | 0.00 | 0.00 | 100 | 1020.8 |
| 20260902202211 | 59 | 239 | 10.0 | 13.0 | 0.00 | 0.00 | 0.00 | 100 | 1021.1 |
| 20260902201711 | 60 | 242 | 7.0 | 10.0 | 0.00 | 0.00 | 0.00 | 100 | 1021.2 |
| 20260902201210 | 60 | 251 | 7.0 | 9.0 | 0.00 | 0.00 | 0.00 | 100 | 1021.2 |
| 20260902200710 | 61 | 246 | 10.0 | 19.0 | 0.00 | 0.00 | 0.00 | 100 | 1021.2 |
| 20260902200209 | 63 | 252 | 7.0 | 8.0 | 0.00 | 0.00 | 0.00 | 100 | 1020.9 |
| 20260902195708 | 63 | 254 | 7.0 | 7.0 | 0.00 | 0.00 | 0.00 | 100 | 1020.7 |
| 20260902195208 | 63 | 249 | 6.0 | 7.0 | 0.00 | 0.00 | 0.00 | 100 | 1020.7 |
| 20260902194707 | 62 | 268 | 5.0 | 7.0 | 0.00 | 0.00 | 0.00 | 100 | 1020.7 |
| 20260902194207 | 61 | 268 | 6.0 | 9.0 | 0.00 | 0.00 | 0.00 | 100 | 1020.7 |
| 20260902193706 | 61 | 291 | 4.0 | 5.0 | 0.00 | 0.00 | 0.00 | 100 | 1020.7 |
| 20260902193206 | 60 | 346 | 4.0 | 6.0 | 0.00 | 0.00 | 0.00 | 100 | 1020.8 |
| 20260902192705 | 61 | 2 | 2.0 | 5.0 | 0.00 | 0.00 | 0.00 | 100 | 1020.7 |
| 20260902192205 | 62 | 230 | 6.0 | 6.0 | 0.00 | 0.00 | 0.00 | 100 | 1020.5 |
| 20260902191704 | 62 | 227 | 6.0 | 7.0 | 0.00 | 0.00 | 0.00 | 100 | 1020.5 |
| 20260902191203 | 62 | 230 | 7.0 | 7.0 | 0.00 | 0.00 | 0.00 | 100 | 1020.5 |
| 20260902190703 | 62 | 228 | 6.0 | 7.0 | 0.00 | 0.00 | 0.00 | 100 | 1020.4 |
| 20260902190202 | 62 | 225 | 6.0 | 7.0 | 0.00 | 0.00 | 0.00 | 100 | 1020.4 |
| 20260902185702 | 61 | 225 | 5.0 | 6.0 | 0.00 | 0.00 | 0.00 | 100 | 1020.4 |
| 20260902185203 | 61 | 210 | 4.0 | 6.0 | 0.00 | 0.00 | 0.00 | 100 | 1020.4 |
| 20260902184701 | 60 | 281 | 1.0 | 3.0 | 0.00 | 0.00 | 0.00 | 100 | 1020.3 |
| 20260902184200 | 60 | 227 | 4.0 | 8.0 | 0.00 | 0.00 | 0.00 | 100 | 1020.3 |
| 20260902183700 | 60 | 301 | 2.0 | 5.0 | 0.00 | 0.00 | 0.00 | 100 | 1020.3 |
| 20260902183159 | 60 | 317 | 5.0 | 9.0 | 0.00 | 0.00 | 0.00 | 100 | 1020.4 |
| 20260902182659 | 60 | 312 | 9.0 | 14.0 | 0.00 | 0.00 | 0.00 | 100 | 1020.4 |
| 20260902182158 | 60 | 306 | 10.0 | 15.0 | 0.00 | 0.00 | 0.00 | 100 | 1020.4 |
| 20260902181658 | 59 | 273 | 14.0 | 17.0 | 0.00 | 0.00 | 0.00 | 100 | 1020.5 |
| 20260902181157 | 60 | 268 | 14.0 | 19.0 | 0.00 | 0.00 | 0.00 | 100 | 1020.6 |
| 20260902180657 | 60 | 282 | 18.0 | 25.0 | 0.00 | 0.00 | 0.00 | 93 | 1020.5 |
| 20260902180156 | 62 | 294 | 14.0 | 21.0 | 0.00 | 0.00 | 0.00 | 78 | 1020.1 |
| 20260902175655 | 68 | 273 | 8.0 | 12.0 | 0.00 | 0.00 | 0.00 | 56 | 1019.8 |
| 20260902175154 | 70 | 242 | 5.0 | 5.0 | 0.00 | 0.00 | 0.00 | 48 | 1019.7 |
| 20260902174654 | 71 | 251 | 4.0 | 6.0 | 0.00 | 0.00 | 0.00 | 47 | 1019.6 |
| 20260902174152 | 71 | 249 | 4.0 | 6.0 | 0.00 | 0.00 | 0.00 | 46 | 1019.5 |
| 20260902173651 | 71 | 239 | 4.0 | 6.0 | 0.00 | 0.00 | 0.00 | 46 | 1019.5 |
| 20260902173150 | 71 | 232 | 4.0 | 6.0 | 0.00 | 0.00 | 0.00 | 46 | 1019.5 |
| 20260902172649 | 72 | 261 | 6.0 | 8.0 | 0.00 | 0.00 | 0.00 | 46 | 1019.5 |
| 20260902172148 | 72 | 241 | 6.0 | 9.0 | 0.00 | 0.00 | 0.00 | 45 | 1019.5 |
| 20260902171647 | 72 | 232 | 5.0 | 8.0 | 0.00 | 0.00 | 0.00 | 45 | 1019.4 |
| 20260902171146 | 73 | 225 | 5.0 | 7.0 | 0.00 | 0.00 | 0.00 | 45 | 1019.5 |
| 20260902170645 | 73 | 225 | 6.0 | 7.0 | 0.00 | 0.00 | 0.00 | 45 | 1019.4 |
| 20260902170144 | 73 | 221 | 5.0 | 7.0 | 0.00 | 0.00 | 0.00 | 45 | 1019.5 |
| 20260902165642 | 73 | 237 | 6.0 | 8.0 | 0.00 | 0.00 | 0.00 | 44 | 1019.5 |
| 20260902165141 | 74 | 246 | 6.0 | 8.0 | 0.00 | 0.00 | 0.00 | 44 | 1019.5 |
| 20260902164640 | 74 | 220 | 7.0 | 9.0 | 0.00 | 0.00 | 0.00 | 43 | 1019.5 |
| 20260902164139 | 75 | 223 | 5.0 | 8.0 | 0.00 | 0.00 | 0.00 | 43 | 1019.6 |
| 20260902163638 | 76 | 204 | 4.0 | 6.0 | 0.00 | 0.00 | 0.00 | 42 | 1019.6 |
| 20260902163136 | 75 | 218 | 3.0 | 6.0 | 0.00 | 0.00 | 0.00 | 43 | 1019.6 |
| 20260902162635 | 76 | 232 | 5.0 | 6.0 | 0.00 | 0.00 | 0.00 | 42 | 1019.6 |
| 20260902162134 | 76 | 236 | 4.0 | 6.0 | 0.00 | 0.00 | 0.00 | 41 | 1019.6 |
| 20260902161632 | 77 | 244 | 4.0 | 6.0 | 0.00 | 0.00 | 0.00 | 41 | 1019.6 |
| 20260902161131 | 78 | 251 | 5.0 | 6.0 | 0.00 | 0.00 | 0.00 | 40 | 1019.5 |
| 20260902160629 | 78 | 237 | 5.0 | 8.0 | 0.00 | 0.00 | 0.00 | 40 | 1019.5 |
| 20260902160128 | 79 | 204 | 3.0 | 6.0 | 0.00 | 0.00 | 0.00 | 40 | 1019.6 |
| 20260902155626 | 79 | 225 | 4.0 | 6.0 | 0.00 | 0.00 | 0.00 | 40 | 1019.5 |
| 20260902155125 | 79 | 242 | 6.0 | 9.0 | 0.00 | 0.00 | 0.00 | 40 | 1019.5 |
| 20260902154623 | 79 | 241 | 5.0 | 7.0 | 0.00 | 0.00 | 0.00 | 39 | 1019.5 |
| 20260902154122 | 79 | 257 | 6.0 | 9.0 | 0.00 | 0.00 | 0.00 | 39 | 1019.6 |
| 20260902153620 | 80 | 257 | 3.0 | 5.0 | 0.00 | 0.00 | 0.00 | 40 | 1019.6 |
| 20260902153119 | 79 | 254 | 2.0 | 4.0 | 0.00 | 0.00 | 0.00 | 40 | 1019.6 |
| 20260902152617 | 77 | 269 | 4.0 | 7.0 | 0.00 | 0.00 | 0.00 | 42 | 1019.7 |
| 20260902152116 | 76 | 265 | 5.0 | 8.0 | 0.00 | 0.00 | 0.00 | 42 | 1019.8 |
| 20260902151615 | 76 | 256 | 4.0 | 7.0 | 0.00 | 0.00 | 0.00 | 41 | 1019.9 |
| 20260902151113 | 77 | 257 | 3.0 | 4.0 | 0.00 | 0.00 | 0.00 | 41 | 1020.0 |
| 20260902150612 | 78 | 283 | 4.0 | 6.0 | 0.00 | 0.00 | 0.00 | 40 | 1020.0 |
| 20260902150110 | 79 | 285 | 4.0 | 6.0 | 0.00 | 0.00 | 0.00 | 39 | 1020.0 |
| 20260902145608 | 79 | 272 | 5.0 | 6.0 | 0.00 | 0.00 | 0.00 | 39 | 1020.0 |
| 20260902145107 | 79 | 272 | 8.0 | 12.0 | 0.00 | 0.00 | 0.00 | 39 | 1020.1 |
| 20260902144605 | 80 | 272 | 9.0 | 11.0 | 0.00 | 0.00 | 0.00 | 38 | 1020.0 |
| 20260902144104 | 81 | 241 | 5.0 | 11.0 | 0.00 | 0.00 | 0.00 | 38 | 1020.1 |
| 20260902143602 | 81 | 239 | 4.0 | 7.0 | 0.00 | 0.00 | 0.00 | 38 | 1020.1 |
| 20260902143100 | 81 | 268 | 5.0 | 7.0 | 0.00 | 0.00 | 0.00 | 38 | 1020.2 |
| 20260902142559 | 80 | 251 | 4.0 | 7.0 | 0.00 | 0.00 | 0.00 | 39 | 1020.3 |
| 20260902142057 | 80 | 284 | 6.0 | 11.0 | 0.00 | 0.00 | 0.00 | 38 | 1020.3 |
| 20260902141555 | 80 | 258 | 5.0 | 7.0 | 0.00 | 0.00 | 0.00 | 39 | 1020.3 |
| 20260902141054 | 80 | 253 | 6.0 | 9.0 | 0.00 | 0.00 | 0.00 | 39 | 1020.3 |
| 20260902140552 | 80 | 268 | 9.0 | 13.0 | 0.00 | 0.00 | 0.00 | 38 | 1020.4 |
| 20260902140050 | 80 | 251 | 7.0 | 11.0 | 0.00 | 0.00 | 0.00 | 38 | 1020.4 |
| 20260902135549 | 81 | 222 | 6.0 | 12.0 | 0.00 | 0.00 | 0.00 | 37 | 1020.4 |
| 20260902135047 | 81 | 249 | 6.0 | 10.0 | 0.00 | 0.00 | 0.00 | 38 | 1020.6 |
| 20260902134545 | 82 | 233 | 5.0 | 8.0 | 0.00 | 0.00 | 0.00 | 38 | 1020.5 |
| 20260902134043 | 82 | 236 | 8.0 | 12.0 | 0.00 | 0.00 | 0.00 | 37 | 1020.5 |
| 20260902133541 | 81 | 268 | 6.0 | 11.0 | 0.00 | 0.00 | 0.00 | 38 | 1020.6 |
| 20260902133040 | 80 | 239 | 6.0 | 8.0 | 0.00 | 0.00 | 0.00 | 38 | 1020.6 |
| 20260902132538 | 81 | 251 | 6.0 | 10.0 | 0.00 | 0.00 | 0.00 | 38 | 1020.7 |
| 20260902132036 | 83 | 193 | 2.0 | 4.0 | 0.00 | 0.00 | 0.00 | 38 | 1020.6 |
| 20260902131534 | 80 | 257 | 5.0 | 11.0 | 0.00 | 0.00 | 0.00 | 38 | 1020.8 |
| 20260902131033 | 79 | 232 | 5.0 | 11.0 | 0.00 | 0.00 | 0.00 | 38 | 1020.8 |
| 20260902130531 | 79 | 267 | 7.0 | 11.0 | 0.00 | 0.00 | 0.00 | 39 | 1021.0 |
| 20260902130029 | 81 | 270 | 9.0 | 14.0 | 0.00 | 0.00 | 0.00 | 37 | 1021.0 |
| 20260902125527 | 82 | 220 | 4.0 | 7.0 | 0.00 | 0.00 | 0.00 | 39 | 1021.0 |
| 20260902125026 | 80 | 230 | 3.0 | 5.0 | 0.00 | 0.00 | 0.00 | 41 | 1021.0 |
| 20260902124524 | 80 | 274 | 8.0 | 12.0 | 0.00 | 0.00 | 0.00 | 39 | 1021.0 |
| 20260902124022 | 81 | 277 | 4.0 | 5.0 | 0.00 | 0.00 | 0.00 | 40 | 1021.0 |
| 20260902123521 | 80 | 270 | 8.0 | 15.0 | 0.00 | 0.00 | 0.00 | 41 | 1021.1 |